Santee, CA

7:10 PM PDT on July 23, 2016 (GMT -0700)
Gillespie

Weather History for KSEE - April, 2014

Change the Weather History Date:

Wednesday, April 9, 2014

  Actual Average Record
Temperature  
Mean Temperature 74 °F -  
Max Temperature 96 °F 69 °F 99 °F (1989)
Min Temperature 51 °F 47 °F 37 °F (2001)
Cooling Degree Days 8    
Growing Degree Days 24 (Base 50)    
Moisture  
Dew Point 33 °F    
Average Humidity 30    
Maximum Humidity 58    
Minimum Humidity 7    
Precipitation  
Precipitation 0.00 in - - ()
Sea Level Pressure  
Sea Level Pressure 30.00 in    
Wind  
Wind Speed 3 mph (WNW)    
Max Wind Speed 17 mph    
Max Gust Speed 20 mph    
Visibility 10 miles    
Events      
Averages and records for this station are not official NWS values.
T = Trace of Precipitation, MM = Missing Value Source: NWS Daily Summary

Daily Weather History Graph

Daily Weather History Graph

Search for Another Location

Airport or City:

Trip Planner

Search our weather history database for the weather conditions in past years. The results will help you decide how hot, cold, wet, or windy it might be!

Date:

Astronomy

Apr. 09, 2014 Rise Set
Actual Time 6:25 AM PDT 7:13 PM PDT
Civil Twilight 6:00 AM PDT 7:38 PM PDT
Nautical Twilight 5:30 AM PDT 8:08 PM PDT
Astronomical Twilight 5:00 AM PDT 8:39 PM PDT
Moon 2:21 PM PDT (4/9) 3:00 AM PDT (4/9)
Length of Visible Light 13h 38m
Length of Day
12h 48m
Waxing Gibbous, 72% of the Moon is Illuminated
Apr 9
Waxing Gibbous
Apr 15
Full
Apr 22
Last Quarter
Apr 28
New
May 6
First Quarter

Hourly Weather History & Observations

Time (PDT) Temp. Dew Point Humidity Pressure Visibility Wind Dir Wind Speed Gust Speed Precip Events Conditions
12:15 AM 59.0 °F 33.8 °F 39% 30.05 in 10.0 mi NW 4.6 mph - N/A   Clear
12:35 AM 57.2 °F 33.8 °F 41% 30.05 in 10.0 mi Calm Calm - N/A   Clear
12:55 AM 57.2 °F 33.8 °F 41% 30.05 in 10.0 mi Calm Calm - N/A   Clear
1:15 AM 57.2 °F 33.8 °F 41% 30.04 in 10.0 mi Calm Calm - N/A   Clear
1:35 AM 57.2 °F 33.8 °F 41% 30.04 in 10.0 mi WNW 3.5 mph - N/A   Clear
1:55 AM 55.4 °F 35.6 °F 47% 30.04 in 10.0 mi NW 3.5 mph - N/A   Clear
2:15 AM 55.4 °F 33.8 °F 44% 30.04 in 10.0 mi Calm Calm - N/A   Clear
2:35 AM 55.4 °F 35.6 °F 47% 30.04 in 10.0 mi Calm Calm - N/A   Clear
2:55 AM 53.6 °F 33.8 °F 47% 30.03 in 10.0 mi Calm Calm - N/A   Clear
3:15 AM 53.6 °F 33.8 °F 47% 30.03 in 10.0 mi Calm Calm - N/A   Clear
3:35 AM 53.6 °F 35.6 °F 51% 30.02 in 10.0 mi Calm Calm - N/A   Clear
3:55 AM 53.6 °F 35.6 °F 51% 30.02 in 10.0 mi NW 3.5 mph - N/A   Clear
4:15 AM 53.6 °F 35.6 °F 51% 30.02 in 10.0 mi WNW 3.5 mph - N/A   Clear
4:35 AM 51.8 °F 37.4 °F 58% 30.02 in 10.0 mi Calm Calm - N/A   Clear
4:55 AM 51.8 °F 35.6 °F 54% 30.02 in 10.0 mi Calm Calm - N/A   Clear
5:15 AM 51.8 °F 35.6 °F 54% 30.02 in 10.0 mi Calm Calm - N/A   Clear
5:35 AM 51.8 °F 35.6 °F 54% 30.02 in 10.0 mi WNW 3.5 mph - N/A   Clear
5:55 AM 51.8 °F 35.6 °F 54% 30.02 in 10.0 mi Calm Calm - N/A   Clear
6:15 AM 51.8 °F 35.6 °F 54% 30.02 in 10.0 mi Calm Calm - N/A   Clear
6:35 AM 51.8 °F 35.6 °F 54% 30.03 in 10.0 mi Calm Calm - N/A   Clear
6:55 AM 51.8 °F 35.6 °F 54% 30.04 in 10.0 mi Calm Calm - N/A   Clear
7:15 AM 53.6 °F 37.4 °F 54% 30.04 in 9.0 mi Calm Calm - N/A   Clear
7:35 AM 53.6 °F 37.4 °F 54% 30.04 in 8.0 mi Calm Calm - N/A   Clear
7:55 AM 55.4 °F 37.4 °F 51% 30.05 in 10.0 mi Calm Calm - N/A   Clear
8:15 AM 57.2 °F 37.4 °F 48% 30.04 in 10.0 mi Calm Calm - N/A   Clear
8:35 AM 60.8 °F 37.4 °F 42% 30.04 in 10.0 mi Calm Calm - N/A   Clear
8:55 AM 62.6 °F 37.4 °F 39% 30.04 in 10.0 mi Calm Calm - N/A   Clear
9:15 AM 66.2 °F 37.4 °F 35% 30.04 in 9.0 mi Calm Calm - N/A   Clear
9:35 AM 69.8 °F 39.2 °F 33% 30.04 in 9.0 mi Calm Calm - N/A   Clear
9:55 AM 75.2 °F 39.2 °F 27% 30.04 in 10.0 mi Calm Calm - N/A   Clear
10:15 AM 78.8 °F 39.2 °F 24% 30.04 in 9.0 mi Calm Calm - N/A   Clear
10:35 AM 80.6 °F 37.4 °F 21% 30.03 in 10.0 mi Calm Calm - N/A   Partly Cloudy
10:55 AM 82.4 °F 37.4 °F 20% 30.04 in 10.0 mi WNW 4.6 mph - N/A   Partly Cloudy
11:15 AM 84.2 °F 33.8 °F 16% 30.03 in 10.0 mi WNW 4.6 mph - N/A   Partly Cloudy
11:35 AM 87.8 °F 35.6 °F 16% 30.03 in 10.0 mi West 4.6 mph - N/A   Clear
11:55 AM 91.4 °F 37.4 °F 15% 30.02 in 10.0 mi WNW 5.8 mph - N/A   Clear
12:15 PM 91.4 °F 33.8 °F 13% 30.01 in 10.0 mi West 4.6 mph - N/A   Partly Cloudy
12:35 PM 93.2 °F 33.8 °F 12% 30.00 in 10.0 mi West 4.6 mph - N/A   Partly Cloudy
12:55 PM 93.2 °F 33.8 °F 12% 29.99 in 10.0 mi WSW 4.6 mph - N/A   Partly Cloudy
1:15 PM 96.8 °F 32.0 °F 10% 29.98 in 10.0 mi WSW 5.8 mph - N/A   Clear
1:35 PM 96.8 °F 24.8 °F 8% 29.97 in 10.0 mi West 5.8 mph - N/A   Clear
1:47 PM 96.8 °F 23.0 °F 7% 29.96 in 25.0 mi WSW 6.9 mph - N/A   Mostly Cloudy
1:55 PM 96.8 °F 21.2 °F 7% 29.97 in 10.0 mi WSW 3.5 mph - N/A   Partly Cloudy
2:15 PM 96.8 °F 28.4 °F 9% 29.96 in 10.0 mi WSW 4.6 mph - N/A   Partly Cloudy
2:35 PM 96.8 °F 32.0 °F 10% 29.95 in 10.0 mi West 6.9 mph - N/A   Clear
2:51 PM 93.2 °F 35.6 °F 13% 29.94 in 25.0 mi West 17.3 mph - N/A   Mostly Cloudy
2:55 PM 93.2 °F 35.6 °F 13% 29.95 in 10.0 mi WNW 15.0 mph - N/A   Partly Cloudy
3:15 PM 89.6 °F 28.4 °F 11% 29.95 in 10.0 mi WNW 12.7 mph - N/A   Partly Cloudy
3:35 PM 89.6 °F 32.0 °F 13% 29.95 in 10.0 mi WNW 12.7 mph - N/A   Clear
3:55 PM 87.8 °F 32.0 °F 14% 29.95 in 10.0 mi WNW 15.0 mph 19.6 mph N/A   Clear
4:15 PM 86.0 °F 30.2 °F 13% 29.95 in 10.0 mi WNW 9.2 mph - N/A   Clear
4:35 PM 86.0 °F 23.0 °F 10% 29.95 in 10.0 mi West 11.5 mph - N/A   Clear
4:55 PM 86.0 °F 21.2 °F 9% 29.95 in 10.0 mi West 12.7 mph - N/A   Clear
5:15 PM 84.2 °F 21.2 °F 10% 29.95 in 10.0 mi West 10.4 mph - N/A   Clear
5:35 PM 84.2 °F 23.0 °F 11% 29.94 in 10.0 mi West 12.7 mph - N/A   Clear
5:55 PM 82.4 °F 26.6 °F 13% 29.95 in 10.0 mi West 8.1 mph - N/A   Clear
6:15 PM 80.6 °F 28.4 °F 15% 29.95 in 10.0 mi West 9.2 mph - N/A   Clear
6:35 PM 80.6 °F 26.6 °F 14% 29.95 in 10.0 mi West 6.9 mph - N/A   Clear
6:47 PM 78.8 °F 26.6 °F 15% 29.95 in 25.0 mi West 9.2 mph - N/A   Mostly Cloudy
6:55 PM 78.8 °F 28.4 °F 16% 29.96 in 10.0 mi West 9.2 mph - N/A   Clear
7:15 PM 75.2 °F 28.4 °F 18% 29.96 in 10.0 mi West 5.8 mph - N/A   Clear
7:35 PM 73.4 °F 30.2 °F 20% 29.97 in 10.0 mi WNW 4.6 mph - N/A   Clear
7:47 PM 71.6 °F 30.2 °F 22% 29.96 in 12.0 mi Calm Calm - N/A   Scattered Clouds
7:55 PM 71.6 °F 30.2 °F 22% 29.97 in 10.0 mi Calm Calm - N/A   Clear
8:15 PM 71.6 °F 30.2 °F 22% 29.98 in 10.0 mi WNW 5.8 mph - N/A   Clear
8:35 PM 69.8 °F 32.0 °F 25% 29.98 in 10.0 mi Calm Calm - N/A   Clear
8:55 PM 66.2 °F 32.0 °F 28% 29.99 in 10.0 mi WNW 3.5 mph - N/A   Clear
9:15 PM 64.4 °F 32.0 °F 30% 29.99 in 10.0 mi West 3.5 mph - N/A   Clear
9:35 PM 62.6 °F 33.8 °F 34% 29.99 in 10.0 mi WNW 4.6 mph - N/A   Clear
9:55 PM 62.6 °F 33.8 °F 34% 30.00 in 10.0 mi Calm Calm - N/A   Clear
10:15 PM 62.6 °F 33.8 °F 34% 30.00 in 10.0 mi Calm Calm - N/A   Clear
10:35 PM 60.8 °F 32.0 °F 34% 30.00 in 10.0 mi NW 3.5 mph - N/A   Clear
10:55 PM 60.8 °F 32.0 °F 34% 30.00 in 10.0 mi WNW 3.5 mph - N/A   Clear
11:15 PM 59.0 °F 32.0 °F 36% 30.00 in 10.0 mi Calm Calm - N/A   Clear
11:35 PM 57.2 °F 32.0 °F 38% 30.00 in 10.0 mi NW 3.5 mph - N/A   Clear
11:55 PM 57.2 °F 32.0 °F 38% 30.00 in 10.0 mi Calm Calm - N/A   Clear